SWR3AV EGCC-LSZH

Flight info

Callsign SWR3AV
Flight time 1h 27m
Altitude 37000
Route LISTO P18 TELBA L151 MID UL612 VEULE DCT TEPRI DCT POGZI DCT GELTA DCT MANAG DCT PEVIT DCT BLM
Aircraft A320/M-SDE3FGHIRWY/LB1

Departure

Time 2026-05-06 09:44
Airport Manchester Airport (EGCC)

Arrival

Time 2026-05-06 11:12
Airport Zürich Airport (LSZH)
Time Latitude Longitude Altitude Speed Heading
2026-05-06 09:30 53.36247 -2.27697 255 ft 0 kts 195°
2026-05-06 09:33 53.36249 -2.27697 255 ft 2 kts 195°
2026-05-06 09:33 53.36274 -2.27686 255 ft 4 kts 195°
2026-05-06 09:33 53.36299 -2.27673 255 ft 4 kts 207°
2026-05-06 09:34 53.36319 -2.27648 255 ft 4 kts 249°
2026-05-06 09:34 53.36321 -2.27620 255 ft 0 kts 284°
2026-05-06 09:37 53.36328 -2.27669 255 ft 9 kts 284°
2026-05-06 09:38 53.36343 -2.27763 255 ft 8 kts 284°
2026-05-06 09:38 53.36362 -2.27833 255 ft 6 kts 321°
2026-05-06 09:38 53.36389 -2.27911 255 ft 11 kts 264°
2026-05-06 09:38 53.36339 -2.28020 255 ft 11 kts 223°
2026-05-06 09:39 53.36256 -2.28090 255 ft 16 kts 207°
2026-05-06 09:39 53.36159 -2.28141 255 ft 14 kts 160°
2026-05-06 09:39 53.36078 -2.28029 255 ft 17 kts 139°
2026-05-06 09:39 53.35988 -2.27896 255 ft 18 kts 139°
2026-05-06 09:40 53.35867 -2.27852 254 ft 19 kts 184°
2026-05-06 09:40 53.35724 -2.27879 246 ft 23 kts 186°
2026-05-06 09:40 53.35487 -2.28128 235 ft 21 kts 205°
2026-05-06 09:41 53.35358 -2.28177 236 ft 18 kts 192°
2026-05-06 09:41 53.35248 -2.28276 232 ft 18 kts 221°
2026-05-06 09:41 53.35169 -2.28429 228 ft 18 kts 231°
2026-05-06 09:41 53.35093 -2.28588 229 ft 16 kts 231°
2026-05-06 09:42 53.35027 -2.28720 228 ft 15 kts 227°
2026-05-06 09:42 53.34956 -2.28843 226 ft 14 kts 226°
2026-05-06 09:42 53.34886 -2.28966 222 ft 16 kts 226°
2026-05-06 09:42 53.34807 -2.29111 219 ft 17 kts 229°
2026-05-06 09:43 53.34728 -2.29272 211 ft 19 kts 228°
2026-05-06 09:43 53.34616 -2.29340 212 ft 16 kts 176°
2026-05-06 09:43 53.34541 -2.29246 213 ft 14 kts 104°
2026-05-06 09:43 53.34612 -2.29071 214 ft 37 kts 51°
2026-05-06 09:44 53.34921 -2.28432 234 ft 101 kts 51°
2026-05-06 09:44 53.35479 -2.27274 251 ft 152 kts 51°
2026-05-06 09:44 53.36160 -2.25847 750 ft 157 kts 52°
2026-05-06 09:44 53.36849 -2.24414 1506 ft 159 kts 52°
2026-05-06 09:45 53.37481 -2.22785 1957 ft 179 kts 72°
2026-05-06 09:45 53.37480 -2.20590 2238 ft 205 kts 110°
2026-05-06 09:45 53.36514 -2.18634 2637 ft 233 kts 142°
2026-05-06 09:45 53.35080 -2.17153 3184 ft 255 kts 156°
2026-05-06 09:46 53.33276 -2.16816 3976 ft 266 kts 184°
2026-05-06 09:46 53.31410 -2.17138 4811 ft 272 kts 185°
2026-05-06 09:46 53.29507 -2.17467 5621 ft 278 kts 186°
2026-05-06 09:46 53.27563 -2.17794 6441 ft 283 kts 186°
2026-05-06 09:47 53.25589 -2.18118 7255 ft 287 kts 186°
2026-05-06 09:47 53.23582 -2.18440 8051 ft 291 kts 186°
2026-05-06 09:47 53.21556 -2.18759 8907 ft 293 kts 186°
2026-05-06 09:47 53.19518 -2.19080 9752 ft 296 kts 187°
2026-05-06 09:48 53.17455 -2.19407 10441 ft 304 kts 187°
2026-05-06 09:48 53.15269 -2.19761 10652 ft 327 kts 187°
2026-05-06 09:48 53.12928 -2.20139 10848 ft 349 kts 187°
2026-05-06 09:48 53.10476 -2.20526 11379 ft 358 kts 187°
2026-05-06 09:49 53.07982 -2.20910 12073 ft 361 kts 187°
2026-05-06 09:49 53.05468 -2.21296 12780 ft 364 kts 187°
2026-05-06 09:49 53.02928 -2.21684 13490 ft 367 kts 187°
2026-05-06 09:49 53.00369 -2.22068 14154 ft 370 kts 185°
2026-05-06 09:50 52.97791 -2.21759 14742 ft 377 kts 167°
2026-05-06 09:50 52.95358 -2.20083 15331 ft 382 kts 150°
2026-05-06 09:50 52.93094 -2.17820 15933 ft 385 kts 150°
2026-05-06 09:50 52.90787 -2.15478 16529 ft 389 kts 149°
2026-05-06 09:51 52.88469 -2.13150 17122 ft 391 kts 151°
2026-05-06 09:51 52.86080 -2.10944 17716 ft 394 kts 153°
2026-05-06 09:51 52.83632 -2.08838 18317 ft 397 kts 155°
2026-05-06 09:51 52.81157 -2.06761 18838 ft 400 kts 155°
2026-05-06 09:52 52.78676 -2.04652 19351 ft 403 kts 154°
2026-05-06 09:52 52.76176 -2.02506 19876 ft 406 kts 154°
2026-05-06 09:52 52.73661 -2.00337 20382 ft 409 kts 154°
2026-05-06 09:52 52.71131 -1.98161 20926 ft 411 kts 154°
2026-05-06 09:53 52.68591 -1.95984 21424 ft 413 kts 155°
2026-05-06 09:53 52.66033 -1.93799 21917 ft 416 kts 155°
2026-05-06 09:53 52.63452 -1.91604 22408 ft 418 kts 155°
2026-05-06 09:53 52.60859 -1.89405 22881 ft 421 kts 155°
2026-05-06 09:54 52.58243 -1.87192 23351 ft 424 kts 155°
2026-05-06 09:54 52.55614 -1.84970 23785 ft 426 kts 155°
2026-05-06 09:54 52.52968 -1.82734 24167 ft 429 kts 155°
2026-05-06 09:54 52.50306 -1.80486 24519 ft 431 kts 155°
2026-05-06 09:55 52.47637 -1.78235 24872 ft 433 kts 155°
2026-05-06 09:55 52.44984 -1.76002 25212 ft 435 kts 155°
2026-05-06 09:55 52.42285 -1.73729 25538 ft 437 kts 155°
2026-05-06 09:55 52.39572 -1.71446 25867 ft 439 kts 155°
2026-05-06 09:56 52.36851 -1.69162 26199 ft 441 kts 155°
2026-05-06 09:56 52.34106 -1.66862 26523 ft 443 kts 155°
2026-05-06 09:56 52.31316 -1.64525 26823 ft 445 kts 155°
2026-05-06 09:56 52.28547 -1.62207 27088 ft 447 kts 155°
2026-05-06 09:57 52.25779 -1.59894 27362 ft 449 kts 155°
2026-05-06 09:57 52.22991 -1.57574 27661 ft 451 kts 155°
2026-05-06 09:57 52.20222 -1.55276 27932 ft 452 kts 155°
2026-05-06 09:57 52.17403 -1.52942 28193 ft 454 kts 155°
2026-05-06 09:58 52.14579 -1.50606 28471 ft 456 kts 155°
2026-05-06 09:58 52.11745 -1.48260 28733 ft 458 kts 155°
2026-05-06 09:58 52.08895 -1.45896 28962 ft 460 kts 154°
2026-05-06 09:58 52.06040 -1.43526 29209 ft 462 kts 154°
2026-05-06 09:59 52.03165 -1.41151 29421 ft 463 kts 154°
2026-05-06 09:59 52.00284 -1.38784 29678 ft 464 kts 154°
2026-05-06 09:59 51.97400 -1.36421 29995 ft 464 kts 154°
2026-05-06 09:59 51.94513 -1.34054 30284 ft 464 kts 154°
2026-05-06 10:00 51.91645 -1.31699 30572 ft 463 kts 154°
2026-05-06 10:00 51.88778 -1.29344 30851 ft 461 kts 154°
2026-05-06 10:00 51.85913 -1.26993 31123 ft 461 kts 154°
2026-05-06 10:00 51.83057 -1.24658 31393 ft 460 kts 154°
2026-05-06 10:01 51.80195 -1.22327 31671 ft 459 kts 154°
2026-05-06 10:01 51.77352 -1.20015 31963 ft 458 kts 154°
2026-05-06 10:01 51.74506 -1.17705 32236 ft 457 kts 154°
2026-05-06 10:01 51.71663 -1.15397 32490 ft 458 kts 154°
2026-05-06 10:02 51.68821 -1.13090 32758 ft 457 kts 155°
2026-05-06 10:02 51.65973 -1.10780 33005 ft 457 kts 154°
2026-05-06 10:02 51.63135 -1.08483 33289 ft 456 kts 154°
2026-05-06 10:02 51.60303 -1.06198 33567 ft 455 kts 155°
2026-05-06 10:03 51.57466 -1.03917 33818 ft 455 kts 155°
2026-05-06 10:03 51.54628 -1.01644 34070 ft 455 kts 154°
2026-05-06 10:03 51.51800 -0.99379 34296 ft 455 kts 155°
2026-05-06 10:03 51.48966 -0.97106 34486 ft 455 kts 155°
2026-05-06 10:04 51.46133 -0.94835 34708 ft 454 kts 154°
2026-05-06 10:04 51.43308 -0.92566 34902 ft 454 kts 155°
2026-05-06 10:04 51.40481 -0.90296 35069 ft 455 kts 155°
2026-05-06 10:04 51.37649 -0.88031 35288 ft 454 kts 155°
2026-05-06 10:05 51.34829 -0.85780 35480 ft 454 kts 154°
2026-05-06 10:05 51.32001 -0.83525 35683 ft 453 kts 154°
2026-05-06 10:05 51.30130 -0.82037 35796 ft 453 kts 154°
2026-05-06 10:05 51.26352 -0.79043 36004 ft 454 kts 155°
2026-05-06 10:06 51.20695 -0.74562 36275 ft 455 kts 155°
2026-05-06 10:06 51.18784 -0.73049 36403 ft 455 kts 155°
2026-05-06 10:06 51.15975 -0.70830 36564 ft 454 kts 155°
2026-05-06 10:07 51.13147 -0.68600 36716 ft 455 kts 155°
2026-05-06 10:07 51.10311 -0.66368 36865 ft 454 kts 155°
2026-05-06 10:07 51.07471 -0.64133 36984 ft 455 kts 155°
2026-05-06 10:07 51.04687 -0.61744 36996 ft 456 kts 148°
2026-05-06 10:08 50.99403 -0.56103 36995 ft 458 kts 148°
2026-05-06 10:08 50.94116 -0.50461 36998 ft 458 kts 148°
2026-05-06 10:09 50.88825 -0.44842 37001 ft 457 kts 147°
2026-05-06 10:09 50.83541 -0.39242 37004 ft 456 kts 147°
2026-05-06 10:10 50.78261 -0.33654 37011 ft 457 kts 147°
2026-05-06 10:10 50.72970 -0.28086 37016 ft 457 kts 147°
2026-05-06 10:11 50.67670 -0.22519 37011 ft 458 kts 147°
2026-05-06 10:11 50.62397 -0.16989 37000 ft 458 kts 147°
2026-05-06 10:12 50.57099 -0.11441 37004 ft 458 kts 147°
2026-05-06 10:12 50.51796 -0.05903 37002 ft 458 kts 148°
2026-05-06 10:13 50.46479 -0.00384 37000 ft 458 kts 148°
2026-05-06 10:13 50.41169 0.05121 37006 ft 457 kts 148°
2026-05-06 10:14 50.35870 0.10598 37023 ft 454 kts 148°
2026-05-06 10:14 50.30602 0.16041 37017 ft 453 kts 148°
2026-05-06 10:15 50.25344 0.21445 37012 ft 452 kts 148°
2026-05-06 10:15 50.20077 0.26837 37012 ft 452 kts 148°
2026-05-06 10:16 50.14826 0.32223 37007 ft 451 kts 147°
2026-05-06 10:16 50.09583 0.37614 37001 ft 451 kts 147°
2026-05-06 10:17 50.04348 0.42983 36999 ft 451 kts 147°
2026-05-06 10:17 49.99118 0.48333 37000 ft 450 kts 147°
2026-05-06 10:18 49.93873 0.53673 36983 ft 450 kts 147°
2026-05-06 10:18 49.88783 0.59337 36975 ft 452 kts 136°
2026-05-06 10:19 49.86747 0.63038 36974 ft 453 kts 121°
2026-05-06 10:19 49.85472 0.67482 36971 ft 453 kts 111°
2026-05-06 10:19 49.82916 0.76392 36951 ft 453 kts 119°
2026-05-06 10:20 49.79648 0.84747 36952 ft 453 kts 123°
2026-05-06 10:20 49.76235 0.92968 36941 ft 455 kts 123°
2026-05-06 10:21 49.72938 1.01322 36943 ft 455 kts 121°
2026-05-06 10:21 49.69722 1.09749 36940 ft 455 kts 121°
2026-05-06 10:22 49.66493 1.18164 36941 ft 455 kts 121°
2026-05-06 10:22 49.63240 1.26548 36944 ft 455 kts 122°
2026-05-06 10:23 49.59994 1.34870 36939 ft 456 kts 122°
2026-05-06 10:23 49.56722 1.43225 36945 ft 455 kts 122°
2026-05-06 10:24 49.53449 1.51556 36948 ft 454 kts 122°
2026-05-06 10:24 49.50178 1.59864 36943 ft 454 kts 122°
2026-05-06 10:25 49.46899 1.68171 36936 ft 454 kts 122°
2026-05-06 10:25 49.43618 1.76456 36934 ft 454 kts 122°
2026-05-06 10:26 49.40330 1.84727 36944 ft 453 kts 122°
2026-05-06 10:26 49.37043 1.92992 36936 ft 453 kts 122°
2026-05-06 10:27 49.33755 2.01218 36935 ft 452 kts 123°
2026-05-06 10:27 49.30449 2.09431 36933 ft 452 kts 123°
2026-05-06 10:28 49.27155 2.17623 36924 ft 452 kts 123°
2026-05-06 10:28 49.23856 2.25787 36927 ft 450 kts 123°
2026-05-06 10:29 49.20561 2.33915 36932 ft 449 kts 123°
2026-05-06 10:29 49.17266 2.42032 36935 ft 448 kts 123°
2026-05-06 10:30 49.13983 2.50104 36930 ft 447 kts 123°
2026-05-06 10:30 49.10692 2.58171 36931 ft 447 kts 123°
2026-05-06 10:31 49.07396 2.66188 36924 ft 447 kts 124°
2026-05-06 10:31 49.04083 2.74223 36904 ft 448 kts 124°
2026-05-06 10:32 49.00760 2.82282 36876 ft 450 kts 124°
2026-05-06 10:32 48.97426 2.90359 36873 ft 450 kts 123°
2026-05-06 10:33 48.94081 2.98445 36875 ft 451 kts 124°
2026-05-06 10:33 48.90719 3.06531 36880 ft 452 kts 124°
2026-05-06 10:34 48.87356 3.14585 36892 ft 451 kts 124°
2026-05-06 10:34 48.83986 3.22622 36897 ft 451 kts 124°
2026-05-06 10:35 48.80627 3.30650 36901 ft 450 kts 124°
2026-05-06 10:35 48.77291 3.38685 36897 ft 450 kts 124°
2026-05-06 10:36 48.73951 3.46707 36895 ft 450 kts 124°
2026-05-06 10:36 48.70595 3.54716 36884 ft 450 kts 124°
2026-05-06 10:37 48.67238 3.62695 36891 ft 450 kts 124°
2026-05-06 10:37 48.63876 3.70676 36888 ft 450 kts 124°
2026-05-06 10:38 48.60512 3.78645 36887 ft 450 kts 124°
2026-05-06 10:38 48.57138 3.86598 36881 ft 450 kts 124°
2026-05-06 10:39 48.53754 3.94532 36874 ft 449 kts 124°
2026-05-06 10:39 48.50396 4.02486 36883 ft 450 kts 121°
2026-05-06 10:40 48.48023 4.11234 36886 ft 453 kts 111°
2026-05-06 10:40 48.45948 4.20203 36883 ft 453 kts 111°
2026-05-06 10:41 48.43858 4.29168 36879 ft 453 kts 111°
2026-05-06 10:41 48.41776 4.38061 36870 ft 453 kts 111°
2026-05-06 10:42 48.39671 4.47009 36869 ft 453 kts 112°
2026-05-06 10:42 48.37562 4.55936 36860 ft 453 kts 112°
2026-05-06 10:43 48.35445 4.64874 36855 ft 453 kts 112°
2026-05-06 10:44 48.32266 4.78258 36852 ft 454 kts 112°
2026-05-06 10:44 48.30132 4.87168 36847 ft 453 kts 112°
2026-05-06 10:45 48.27980 4.96065 36848 ft 453 kts 112°
2026-05-06 10:45 48.25838 5.04956 36518 ft 452 kts 112°
2026-05-06 10:45 48.24770 5.09386 36263 ft 452 kts 112°
2026-05-06 10:46 48.23699 5.13804 36011 ft 451 kts 112°
2026-05-06 10:46 48.22629 5.18212 35750 ft 450 kts 112°
2026-05-06 10:46 48.21554 5.22622 35507 ft 449 kts 112°
2026-05-06 10:46 48.20842 5.25530 35344 ft 449 kts 112°
2026-05-06 10:47 48.19765 5.29925 35104 ft 448 kts 112°
2026-05-06 10:47 48.18691 5.34316 34856 ft 448 kts 112°
2026-05-06 10:47 48.17619 5.38696 34610 ft 447 kts 112°
2026-05-06 10:47 48.16548 5.43070 34384 ft 446 kts 112°
2026-05-06 10:48 48.15474 5.47434 34155 ft 446 kts 112°
2026-05-06 10:48 48.14403 5.51780 33916 ft 445 kts 112°
2026-05-06 10:48 48.13329 5.56128 33640 ft 445 kts 112°
2026-05-06 10:48 48.12256 5.60464 33364 ft 445 kts 113°
2026-05-06 10:49 48.11181 5.64803 33087 ft 445 kts 113°
2026-05-06 10:49 48.10098 5.69156 32818 ft 445 kts 113°
2026-05-06 10:49 48.09017 5.73494 32550 ft 444 kts 113°
2026-05-06 10:49 48.07940 5.77818 32287 ft 444 kts 113°
2026-05-06 10:50 48.06860 5.82152 32025 ft 444 kts 113°
2026-05-06 10:50 48.05778 5.86468 31763 ft 444 kts 113°
2026-05-06 10:50 48.04693 5.90778 31508 ft 443 kts 113°
2026-05-06 10:50 48.03609 5.95090 31245 ft 443 kts 113°
2026-05-06 10:51 48.02525 5.99395 30968 ft 442 kts 113°
2026-05-06 10:51 48.01443 6.03683 30742 ft 441 kts 113°
2026-05-06 10:51 48.00361 6.07961 30489 ft 440 kts 113°
2026-05-06 10:51 47.99278 6.12238 30234 ft 440 kts 113°
2026-05-06 10:52 47.98197 6.16495 29997 ft 439 kts 113°
2026-05-06 10:52 47.97114 6.20749 29731 ft 437 kts 113°
2026-05-06 10:52 47.96037 6.24976 29435 ft 435 kts 113°
2026-05-06 10:52 47.94958 6.29203 29140 ft 434 kts 113°
2026-05-06 10:53 47.93883 6.33406 28865 ft 433 kts 113°
2026-05-06 10:53 47.92811 6.37585 28579 ft 431 kts 114°
2026-05-06 10:53 47.91741 6.41762 28294 ft 430 kts 114°
2026-05-06 10:53 47.90689 6.45872 28021 ft 429 kts 114°
2026-05-06 10:54 47.89623 6.50023 27745 ft 428 kts 114°
2026-05-06 10:54 47.88556 6.54151 27473 ft 426 kts 114°
2026-05-06 10:54 47.87490 6.58262 27206 ft 425 kts 114°
2026-05-06 10:54 47.86425 6.62365 26943 ft 424 kts 114°
2026-05-06 10:55 47.85363 6.66452 26685 ft 423 kts 114°
2026-05-06 10:55 47.84291 6.70574 26421 ft 421 kts 114°
2026-05-06 10:55 47.83234 6.74638 26162 ft 420 kts 114°
2026-05-06 10:55 47.82182 6.78677 25810 ft 417 kts 114°
2026-05-06 10:56 47.81134 6.82685 25210 ft 414 kts 114°
2026-05-06 10:56 47.80103 6.86626 24617 ft 412 kts 114°
2026-05-06 10:56 47.79054 6.90635 24015 ft 410 kts 114°
2026-05-06 10:56 47.78033 6.94525 23432 ft 407 kts 114°
2026-05-06 10:57 47.77009 6.98417 22806 ft 402 kts 114°
2026-05-06 10:57 47.75994 7.02264 22271 ft 397 kts 114°
2026-05-06 10:57 47.74990 7.06050 21750 ft 392 kts 114°
2026-05-06 10:57 47.73994 7.09801 21258 ft 388 kts 113°
2026-05-06 10:58 47.73013 7.13502 20785 ft 383 kts 113°
2026-05-06 10:58 47.72039 7.17179 20301 ft 379 kts 113°
2026-05-06 10:58 47.71080 7.20796 19852 ft 375 kts 114°
2026-05-06 10:58 47.70128 7.24373 19407 ft 371 kts 113°
2026-05-06 10:59 47.69182 7.27921 18962 ft 370 kts 113°
2026-05-06 10:59 47.68233 7.31474 18519 ft 369 kts 113°
2026-05-06 10:59 47.67284 7.35024 18042 ft 369 kts 113°
2026-05-06 10:59 47.66338 7.38552 17542 ft 367 kts 113°
2026-05-06 11:00 47.65396 7.42062 17069 ft 364 kts 113°
2026-05-06 11:00 47.64463 7.45531 16612 ft 361 kts 113°
2026-05-06 11:00 47.63539 7.48971 16109 ft 359 kts 113°
2026-05-06 11:00 47.62643 7.52415 15653 ft 357 kts 112°
2026-05-06 11:01 47.61812 7.55879 15153 ft 355 kts 110°
2026-05-06 11:01 47.61019 7.59343 14669 ft 354 kts 110°
2026-05-06 11:01 47.60237 7.62808 14167 ft 354 kts 111°
2026-05-06 11:01 47.59451 7.66263 13668 ft 354 kts 110°
2026-05-06 11:02 47.58658 7.69716 13117 ft 354 kts 109°
2026-05-06 11:02 47.58129 7.73262 12598 ft 354 kts 98°
2026-05-06 11:02 47.58084 7.76900 12073 ft 355 kts 87°
2026-05-06 11:02 47.58441 7.80520 11548 ft 355 kts 82°
2026-05-06 11:03 47.58830 7.84148 11008 ft 356 kts 83°
2026-05-06 11:03 47.59213 7.87780 10504 ft 357 kts 83°
2026-05-06 11:03 47.59587 7.91356 10360 ft 344 kts 82°
2026-05-06 11:03 47.59944 7.94797 10240 ft 331 kts 83°
2026-05-06 11:04 47.60284 7.98117 10112 ft 321 kts 83°
2026-05-06 11:04 47.60608 8.01295 9994 ft 309 kts 83°
2026-05-06 11:04 47.60927 8.04426 9820 ft 299 kts 84°
2026-05-06 11:04 47.61233 8.07435 9526 ft 293 kts 84°
2026-05-06 11:05 47.61535 8.10412 9139 ft 290 kts 83°
2026-05-06 11:05 47.61948 8.13301 8761 ft 290 kts 72°
2026-05-06 11:05 47.62893 8.15977 8346 ft 291 kts 53°
2026-05-06 11:05 47.64214 8.18171 7926 ft 284 kts 46°
2026-05-06 11:06 47.65539 8.20256 7539 ft 272 kts 47°
2026-05-06 11:06 47.66737 8.22326 7074 ft 263 kts 61°
2026-05-06 11:06 47.67233 8.24867 6698 ft 253 kts 90°
2026-05-06 11:06 47.66900 8.27352 6452 ft 243 kts 118°
2026-05-06 11:07 47.65911 8.29314 6184 ft 236 kts 140°
2026-05-06 11:07 47.64696 8.30981 5862 ft 239 kts 140°
2026-05-06 11:07 47.63467 8.32665 5530 ft 242 kts 140°
2026-05-06 11:07 47.62248 8.34344 5199 ft 235 kts 140°
2026-05-06 11:08 47.61071 8.35966 4900 ft 227 kts 140°
2026-05-06 11:08 47.59937 8.37527 4615 ft 218 kts 140°
2026-05-06 11:08 47.58843 8.39030 4331 ft 211 kts 139°
2026-05-06 11:08 47.57785 8.40485 4027 ft 203 kts 140°
2026-05-06 11:09 47.56769 8.41880 3759 ft 195 kts 139°
2026-05-06 11:09 47.55775 8.43243 3500 ft 191 kts 139°
2026-05-06 11:09 47.54807 8.44572 3244 ft 189 kts 139°
2026-05-06 11:09 47.53865 8.45864 2981 ft 179 kts 140°
2026-05-06 11:10 47.52990 8.47064 2786 ft 165 kts 140°
2026-05-06 11:10 47.52163 8.48196 2542 ft 159 kts 141°
2026-05-06 11:10 47.51365 8.49290 2302 ft 153 kts 140°
2026-05-06 11:10 47.50593 8.50346 2058 ft 151 kts 139°
2026-05-06 11:11 47.49820 8.51401 1881 ft 151 kts 139°
2026-05-06 11:11 47.49055 8.52451 1683 ft 150 kts 139°
2026-05-06 11:11 47.48294 8.53497 1483 ft 149 kts 139°
2026-05-06 11:11 47.47573 8.54472 1398 ft 123 kts 137°
2026-05-06 11:12 47.47074 8.55157 1388 ft 78 kts 137°
2026-05-06 11:12 47.46747 8.55583 1394 ft 43 kts 144°
2026-05-06 11:12 47.46507 8.55709 1395 ft 34 kts 168°
2026-05-06 11:12 47.46378 8.55771 1407 ft 15 kts 147°
2026-05-06 11:13 47.46314 8.55850 1401 ft 13 kts 138°
2026-05-06 11:13 47.46235 8.55957 1408 ft 13 kts 136°
2026-05-06 11:13 47.46172 8.55999 1410 ft 14 kts 175°
2026-05-06 11:13 47.46050 8.55982 1407 ft 17 kts 185°
2026-05-06 11:14 47.45943 8.55955 1411 ft 15 kts 199°
2026-05-06 11:14 47.45863 8.55914 1414 ft 8 kts 199°
2026-05-06 11:14 47.45818 8.55889 1416 ft 8 kts 200°
2026-05-06 11:14 47.45745 8.55872 1409 ft 14 kts 185°
2026-05-06 11:15 47.45647 8.55856 1408 ft 13 kts 186°
2026-05-06 11:15 47.45579 8.55846 1410 ft 7 kts 186°
2026-05-06 11:15 47.45525 8.55844 1408 ft 9 kts 167°
2026-05-06 11:15 47.45498 8.55901 1409 ft 6 kts 99°
2026-05-06 11:16 47.45478 8.55954 1409 ft 4 kts 166°
2026-05-06 11:16 47.45442 8.55950 1407 ft 4 kts 186°
2026-05-06 11:16 47.45423 8.55947 1407 ft 1 kts 186°
2026-05-06 11:16 47.45410 8.55946 1407 ft 2 kts 186°
2026-05-06 11:17 47.45409 8.55945 1407 ft 0 kts 186°